Location: Val-d'Or
(48.1170°N, 77.7670°W)
Time: 02:09:47
(UTC-04:00)

ISS - Pass Details

Date: 25 May 2018
Orbit: 402 x 407 km, 51.6° (Epoch: 23 May)

Event Time Altitude Azimuth Distance (km) Brightness Sun altitude
Rises 22:10:03 0° 259° (W) 2,317 0.5 -10.1°
Reaches altitude 10° 22:12:09 10° 263° (W) 1,458 -0.5 -10.4°
Maximum altitude 22:15:23 60° 344° (NNW) 469 -3.2 -10.7°
Drops below altitude 10° 22:18:37 10° 66° (ENE) 1,460 -1.2 -11.1°
Sets 22:20:44 0° 70° (ENE) 2,320 -0.2 -11.3°
